Location: ??
(35.5052°N, 139.7262°E)
Time: 17:01:47
(UTC+00:00)

FENGYUN 1C DEB - Pass Details

Date: 30 January 2022
Orbit: 690 x 958 km, 98.4° (Epoch: 26 May)

Event Time Altitude Azimuth Distance (km) Brightness Sun altitude
Rises 20:04:16 0° 40° (NE) 3,642 ? -20.1°
Reaches altitude 10° 20:10:08 10° 84° (E) 2,664 ? -18.9°
Maximum altitude 20:10:31 10° 88° (E) 2,656 ? -18.8°
Drops below altitude 10° 20:10:55 10° 92° (E) 2,657 ? -18.7°
Sets 20:16:35 0° 136° (SE) 3,534 ? -17.6°
